RH
58 57 56 55 56 57 57 58 58 59 60 61 62 61 59 57 56 56 54 53 52 50 49 48 47 47 45 44 46 44 45 46 45 47 48 48 48 47 47 45 45 54 55 46 39 36 33 31 30 29 28 27 26 26 27 28 33 37 39 41 40 40 39
63 62 61 58 56 54 53 52 51 51 52 54 55 55 55 55 55 55 55 54 54 51 50 50 49 49 47 47 49 48 48 48 48 49 50 50 51 49 48 48 47 51 57 55 48 42 38 36 34 32 31 31 29 28 29 28 30 34 37 40 42 42 42
65 64 64 64 63 61 59 57 55 53 52 52 52 52 52 53 53 54 55 55 54 52 52 53 52 51 49 49 51 51 51 51 51 52 52 51 51 51 49 49 48 50 55 57 53 47 44 40 37 36 34 33 32 31 30 31 31 33 34 37 39 40 41
63 63 63 63 65 65 64 64 61 60 58 56 55 54 53 53 53 53 55 55 54 54 53 54 55 53 52 51 53 53 53 54 54 53 54 53 52 52 51 50 50 50 51 55 55 52 47 44 41 39 37 35 35 34 34 34 35 36 37 38 40 42 46
61 61 62 62 64 64 64 65 64 63 63 61 60 59 57 57 56 56 56 55 54 55 54 55 55 55 54 54 55 56 55 55 55 55 55 55 54 53 53 52 52 51 51 54 57 56 51 48 45 43 40 38 36 37 40 43 45 47 49 51 52 54 58
66 66 63 62 63 64 63 64 64 64 64 63 63 62 61 60 59 58 58 58 58 57 56 56 56 56 56 57 57 57 56 55 55 55 56 56 56 54 54 54 54 53 54 56 58 59 56 53 49 46 44 41 39 39 42 48 56 59 59 61 62 62 63
65 70 71 69 66 64 64 64 64 64 64 64 65 65 65 64 63 61 60 59 59 59 59 59 59 59 58 58 58 57 56 56 56 56 56 55 55 55 56 57 57 56 57 59 60 62 62 59 54 50 48 46 43 43 44 46 52 57 57 57 57 56 55
51 59 67 72 72 72 71 67 65 65 63 64 66 67 68 68 68 69 67 66 64 63 62 61 60 61 60 60 60 59 58 58 57 57 57 56 56 57 58 59 59 60 61 62 64 65 64 63 60 57 55 52 50 52 51 46 45 47 47 47 49 50 50
40 46 51 58 65 71 74 73 73 70 69 73 78 79 77 72 70 71 72 72 72 71 71 69 66 64 62 61 60 60 60 61 60 60 59 58 57 57 59 60 61 64 65 67 70 70 68 69 68 64 62 60 56 53 50 47 46 46 45 45 47 49 50
41 42 45 50 52 57 65 71 75 76 74 81 90 94 92 87 82 79 78 77 76 76 75 76 76 74 72 69 66 63 61 60 60 61 61 61 60 58 59 60 63 66 67 70 73 73 72 75 74 69 64 61 56 51 50 51 51 51 53 55 58 57 53
56 49 55 62 54 49 50 51 59 69 73 80 92 99 99 97 96 94 93 90 88 85 81 78 78 79 79 80 77 74 71 66 63 61 60 61 62 61 60 60 63 65 66 70 73 71 72 74 74 70 65 61 58 56 55 55 54 57 60 64 67 65 58
69 59 65 66 54 46 45 41 40 44 53 74 94 101 99 100 101 100 99 99 97 94 88 82 78 76 77 79 80 80 80 77 74 69 65 62 61 61 62 61 61 62 64 67 69 70 71 71 69 68 66 63 61 60 58 58 59 61 63 64 66 65 59
74 66 63 60 62 66 67 60 47 37 50 80 98 101 100 100 101 100 100 101 99 94 89 84 80 77 75 74 76 78 80 82 82 79 76 72 66 63 62 63 63 62 62 62 63 66 67 65 64 66 63 58 56 58 61 65 67 66 64 64 63 60 56
84 81 70 65 78 91 93 88 70 60 78 97 100 99 101 100 100 101 99 98 95 88 82 79 80 80 77 75 74 76 80 84 86 87 86 82 77 71 66 64 64 64 64 65 64 64 63 59 59 60 56 52 53 56 60 64 66 65 64 64 63 59 56
93 93 83 79 92 102 103 95 80 80 97 103 98 100 101 99 100 100 98 96 90 84 81 82 84 83 80 78 76 75 79 85 89 93 94 90 86 82 76 71 68 65 66 67 66 65 63 60 59 57 55 54 54 55 56 57 59 60 62 65 67 67 69
91 91 90 90 94 95 89 79 75 87 101 101 99 101 100 99 101 99 95 91 89 92 94 93 91 87 83 80 77 76 79 85 92 99 100 97 94 89 84 80 76 72 69 68 67 66 64 62 62 61 60 58 56 56 57 60 64 66 67 72 77 81 82
77 82 88 89 83 77 77 80 87 98 103 99 100 101 99 100 101 100 96 93 94 97 96 95 96 95 94 91 85 83 82 85 93 100 100 100 99 96 92 88 84 80 78 75 74 73 71 70 69 68 67 64 62 60 59 64 72 73 73 78 87 91 87
69 73 76 74 74 80 91 97 99 99 98 99 101 99 98 99 100 100 100 98 97 93 92 97 98 95 98 99 95 93 93 93 98 101 100 100 100 99 99 94 89 87 84 81 81 85 89 89 85 79 75 72 69 64 62 65 69 70 74 82 88 88 85
81 83 72 64 74 93 102 99 93 87 87 95 99 96 95 99 100 101 101 100 99 97 96 96 92 90 97 101 100 100 99 99 100 100 100 101 100 100 100 97 94 92 88 84 83 86 92 98 97 89 83 82 80 72 66 64 63 65 74 81 82 82 86
90 95 84 75 85 98 95 87 81 73 71 84 96 94 94 99 101 101 101 100 100 100 97 92 92 96 95 89 89 96 100 100 100 100 100 100 100 100 100 98 97 95 91 89 86 84 88 95 98 93 87 89 91 81 70 69 70 71 73 74 76 79 83
88 93 89 87 91 90 80 73 69 65 71 87 98 98 97 99 98 97 100 101 101 100 99 98 99 95 85 76 78 90 99 101 99 100 101 100 100 100 100 99 100 98 94 92 90 90 94 98 99 97 93 96 98 89 79 79 80 78 76 74 75 79 81
85 89 90 88 84 81 79 76 69 74 89 98 96 95 96 96 96 98 100 101 101 100 100 101 99 91 81 76 78 88 99 102 100 100 101 100 100 100 100 100 101 99 98 96 95 97 100 100 100 100 99 100 101 96 90 88 86 86 88 87 85 84 85
88 93 95 89 85 86 88 80 73 83 100 97 84 80 83 88 93 97 97 98 101 102 100 100 99 93 85 82 86 95 101 100 99 100 100 99 100 100 100 100 100 100 100 99 99 101 100 100 100 100 100 100 100 99 97 96 95 96 98 99 96 92 90
92 98 100 97 97 97 88 78 80 94 102 92 75 65 65 73 80 84 89 97 100 98 99 100 98 95 97 97 97 99 100 99 100 101 100 100 101 100 100 100 99 100 101 101 101 101 100 100 100 100 100 100 100 100 100 99 100 101 99 97 94 91 90
96 99 102 100 101 98 87 84 93 98 89 75 66 64 69 75 76 78 90 101 98 92 95 101 100 99 101 95 86 88 97 100 100 99 99 100 100 99 100 101 100 100 101 101 101 101 100 100 100 99 100 100 100 100 100 100 101 100 96 94 93 92 94
99 102 103 101 99 96 94 95 94 85 74 70 74 81 83 80 78 84 97 103 98 89 89 94 99 102 99 87 80 89 100 101 98 99 100 99 98 99 100 100 100 100 100 100 101 100 99 99 100 100 101 100 100 100 100 100 98 94 93 93 93 96 98
101 102 101 101 99 98 99 96 87 80 80 85 90 91 85 83 90 99 101 100 97 92 87 86 91 98 98 90 83 86 95 100 99 99 98 97 98 100 100 100 100 100 100 100 100 100 100 100 101 101 100 100 101 101 99 97 93 90 91 91 91 96 100
102 101 100 101 101 101 100 96 92 92 94 95 95 92 87 90 100 103 101 101 101 95 86 82 85 91 95 94 86 81 87 97 101 99 98 98 99 99 100 100 100 100 100 101 101 101 102 102 101 101 100 101 101 100 98 96 94 91 88 88 91 95 98
99 101 102 101 100 102 103 101 100 99 96 95 94 91 88 90 93 95 100 104 99 88 81 81 84 90 96 99 96 90 90 96 100 101 100 100 100 100 100 100 100 100 100 100 101 101 101 101 101 100 101 102 101 99 98 97 97 95 92 92 97 98 96
99 100 102 101 101 102 103 104 103 100 97 97 95 90 90 91 87 89 98 100 91 81 78 77 79 86 95 102 102 98 97 99 100 100 101 101 100 101 101 100 100 101 100 100 101 101 100 100 101 101 101 101 100 100 101 101 100 99 99 100 102 101 98
100 100 99 99 102 101 98 99 101 100 99 99 97 96 96 92 87 92 98 94 83 76 74 78 83 86 91 98 102 100 101 103 101 100 101 101 100 99 99 97 96 99 100 100 100 101 101 100 100 98 97 97 97 98 101 102 101 101 101 102 102 100 97
100 100 99 100 102 100 98 98 99 100 100 99 100 101 98 91 93 99 94 82 74 71 74 87 99 98 93 95 99 100 100 102 101 101 102 100 98 97 96 92 91 93 94 94 95 97 98 99 98 98 96 97 98 99 101 102 102 102 101 102 102 100 97
99 99 98 98 98 98 100 101 100 100 101 100 100 101 98 95 99 99 86 72 69 72 77 88 100 101 97 98 98 99 101 102 100 101 103 101 98 96 92 89 90 90 89 89 92 94 95 97 98 98 100 101 101 101 101 102 103 103 103 103 102 101 100
96 92 87 87 86 85 91 98 99 98 101 100 100 100 100 100 100 94 82 72 69 70 76 87 97 99 99 100 99 98 100 101 100 100 103 103 101 99 94 90 90 90 89 91 94 95 96 98 98 98 100 101 101 101 103 104 105 105 104 104 104 102 101
94 88 84 85 83 81 83 86 84 88 97 102 101 100 99 99 96 90 83 78 73 69 73 85 97 101 101 100 100 98 97 97 97 97 99 100 100 100 98 93 91 90 90 92 94 95 96 98 99 99 100 101 100 100 101 101 102 102 102 102 103 103 101
95 89 86 85 84 85 85 79 76 84 95 97 92 88 88 93 99 99 92 85 78 75 75 79 88 99 103 101 100 99 97 95 94 94 94 96 97 97 96 93 89 86 86 86 89 92 93 95 96 97 98 100 101 100 100 99 97 97 97 98 101 102 102
Wind_Speed
11 13 15 18 19 21 22 23 24 25 26 27 28 29 30 30 30 31 32 31 32 32 31 32 32 32 32 30 30 31 30 30 30 29 28 28 28 28 28 28 25 18 14 16 19 20 21 21 21 20 20 20 20 20 21 24 26 28 30 30 30 29 27
5 8 10 12 14 16 18 20 21 22 24 26 27 27 28 29 29 30 31 30 31 31 31 31 32 32 31 30 31 31 30 31 30 29 29 29 28 29 30 29 29 25 19 17 19 22 23 23 24 24 23 23 22 22 22 23 25 28 30 30 31 30 30
5 2 2 5 8 10 13 15 17 18 20 22 24 25 26 27 28 29 29 30 30 30 30 31 31 32 31 30 31 31 31 31 30 30 30 30 30 30 30 30 30 29 24 20 20 21 23 23 24 25 25 24 23 22 22 23 24 26 28 29 30 31 30
12 10 7 5 3 3 5 8 11 14 16 18 19 22 23 25 26 27 28 29 30 30 30 30 31 31 30 30 31 31 30 30 30 30 31 31 31 31 31 31 31 31 30 25 21 20 21 23 24 25 25 24 23 22 22 22 23 24 25 27 28 29 30
14 13 12 10 9 8 6 5 6 8 10 13 15 17 19 21 23 25 26 28 28 29 29 30 31 30 30 29 30 31 30 30 30 31 31 32 32 31 31 31 31 32 32 29 25 21 19 20 22 23 24 24 24 23 22 21 22 23 24 25 27 28 29
15 14 13 12 11 9 8 8 7 7 6 7 9 12 14 17 19 21 23 25 26 27 28 29 30 30 29 30 31 31 31 30 31 31 31 32 32 31 31 31 31 31 31 31 30 26 21 20 21 23 23 24 25 25 24 23 23 23 24 26 27 28 28
15 14 13 12 11 10 9 8 8 7 7 7 7 8 9 11 14 16 19 21 23 24 26 27 28 29 29 30 31 32 31 31 31 31 32 32 32 31 31 31 31 31 31 31 30 27 24 23 23 23 23 23 24 25 25 25 24 24 26 27 28 29 30
15 14 12 11 11 10 9 9 8 8 8 8 8 9 9 9 10 12 14 15 17 19 21 23 25 26 28 29 30 31 31 31 31 31 32 32 31 31 31 31 31 30 30 30 28 27 25 23 23 24 22 21 23 25 24 26 28 29 30 31 31 31 30
15 14 13 13 12 11 10 10 10 9 9 9 10 11 11 11 11 12 13 13 14 14 16 18 20 22 24 25 27 28 29 30 30 30 32 32 30 30 31 31 31 30 29 28 26 25 23 20 22 24 24 23 26 29 29 30 31 31 30 30 30 30 29
16 16 16 15 15 14 13 12 12 11 10 10 11 12 12 13 13 13 13 14 14 15 15 15 16 18 19 20 22 24 26 28 29 30 31 31 31 31 31 31 31 30 29 27 25 25 23 20 22 26 28 29 31 33 32 30 31 31 28 24 22 23 26
18 17 17 17 17 17 16 16 15 14 13 12 12 13 13 14 14 14 14 14 14 15 15 16 17 17 17 18 19 20 22 24 26 28 30 31 32 32 33 33 32 31 30 28 27 26 25 24 25 27 30 32 32 31 31 31 31 30 26 22 19 17 19
19 19 18 18 19 19 19 18 16 16 15 14 14 15 14 14 15 15 15 15 15 15 16 16 17 18 18 18 19 19 20 21 22 24 26 29 31 33 34 35 34 33 31 30 29 27 26 28 28 27 29 32 32 31 32 32 30 29 27 26 24 20 18
20 20 20 19 20 20 19 19 19 17 17 16 16 16 15 15 16 16 17 17 18 19 18 18 18 19 19 18 18 19 20 20 21 22 23 25 28 32 34 36 37 36 35 33 32 30 30 32 31 29 31 34 34 33 33 30 29 29 29 28 28 27 24
21 21 21 20 20 20 19 19 20 20 18 18 17 17 16 16 17 18 19 20 21 21 21 20 19 20 20 19 18 18 18 19 20 21 22 24 27 30 33 34 37 38 38 37 35 34 34 35 34 33 35 35 34 35 34 32 31 32 32 31 29 27 24
22 22 22 21 21 20 18 19 21 20 19 18 18 18 17 18 19 20 21 22 23 23 22 21 20 20 21 21 20 19 18 18 19 21 23 25 27 29 31 33 35 37 39 39 39 39 39 38 37 37 37 35 34 35 35 34 34 34 32 29 25 21 19
22 22 22 21 20 20 20 21 21 19 18 18 18 18 17 18 19 20 22 23 23 21 21 21 21 22 23 22 22 20 18 18 18 20 23 26 28 29 30 32 34 34 35 37 38 40 41 41 39 38 36 35 34 34 34 33 29 27 26 24 19 17 18
24 22 21 21 20 20 21 21 19 17 17 17 16 17 17 18 19 20 21 21 20 19 21 21 20 20 21 23 22 20 18 18 18 19 23 26 27 28 29 31 33 32 32 33 34 36 38 39 39 37 34 34 33 32 33 31 27 25 26 23 16 14 17
25 24 23 22 21 20 20 19 17 15 16 16 16 17 18 19 20 20 19 19 19 20 20 18 18 19 20 22 22 20 19 18 18 20 22 24 26 27 28 31 31 29 28 29 30 30 29 30 33 34 32 31 31 31 32 32 31 30 30 26 19 15 15
22 23 23 21 18 17 18 19 18 17 18 18 18 17 18 20 20 19 19 18 18 18 17 18 20 19 17 18 19 20 20 19 19 21 22 24 25 26 28 30 28 27 28 29 29 28 27 26 27 29 29 28 28 29 31 32 33 33 32 28 23 19 13
20 22 22 19 16 16 18 20 21 21 20 19 18 18 18 19 19 19 19 19 19 18 19 20 18 15 15 19 21 20 20 20 20 21 23 25 25 26 28 29 27 27 29 29 29 28 29 28 26 26 26 26 27 28 29 31 32 32 31 29 26 23 18
21 21 22 19 16 17 17 17 18 19 18 16 16 16 16 18 19 19 20 20 20 19 19 18 15 16 19 22 21 20 21 21 21 22 24 25 26 27 27 27 27 27 28 28 27 26 26 26 24 24 25 27 28 29 30 31 30 27 26 25 24 22 21
21 21 22 20 17 17 17 16 16 17 15 14 15 15 16 18 19 19 19 20 20 19 18 18 19 21 22 21 20 21 22 22 22 22 24 25 26 26 26 26 27 29 27 25 24 23 23 24 24 25 26 28 29 30 30 29 27 24 22 21 19 18 18
21 21 21 21 19 18 18 18 17 17 15 15 17 18 18 18 19 18 19 21 21 20 19 20 21 22 21 19 19 21 22 23 23 23 23 24 24 24 25 25 27 28 27 24 22 22 22 24 25 26 28 29 31 31 29 27 26 23 21 18 16 15 15
20 20 20 20 19 19 20 19 17 16 16 19 21 21 20 19 19 19 20 21 22 21 21 21 20 20 19 18 18 20 22 22 22 22 22 23 23 23 25 25 25 27 26 22 22 22 22 23 26 28 29 31 32 31 28 26 24 21 19 17 15 15 15
18 17 18 18 18 21 22 20 17 18 21 23 23 22 20 18 18 20 21 21 21 22 21 20 19 18 17 18 19 19 19 19 20 21 21 21 21 22 23 24 24 25 24 22 22 23 22 24 27 29 29 31 32 31 28 25 22 19 17 16 16 16 16
16 16 17 18 20 22 21 19 20 24 25 23 21 19 18 17 18 19 19 18 19 21 20 19 17 16 16 17 17 17 18 19 20 20 20 20 21 21 22 22 22 24 25 23 24 25 24 25 26 26 26 27 29 29 26 23 21 18 17 17 16 16 16
17 17 18 19 20 20 19 21 25 26 22 20 20 20 20 19 18 17 18 19 19 20 21 20 19 17 16 16 16 16 17 18 19 20 20 20 20 20 20 21 22 25 25 25 24 24 24 24 23 23 23 23 24 24 22 19 18 17 17 16 14 14 15
19 19 19 19 19 19 21 23 23 20 18 19 21 22 22 21 19 18 19 20 19 21 22 23 21 19 17 17 16 15 15 16 16 15 14 15 15 15 14 16 19 21 21 20 19 19 19 19 20 21 22 21 20 19 18 16 16 16 15 15 14 14 14
20 20 19 20 20 20 21 19 17 16 18 20 20 21 22 22 21 21 20 18 19 21 23 23 21 20 19 19 17 15 14 14 12 9 6 4 4 4 6 9 13 14 14 13 14 15 16 17 18 19 19 18 17 15 15 15 16 16 15 15 16 16 15
18 19 19 20 20 18 16 16 17 19 20 20 20 20 21 21 22 21 19 17 19 22 22 21 21 20 20 19 17 15 14 12 9 7 5 3 3 4 4 5 6 7 9 9 10 12 13 14 15 15 15 14 14 14 14 15 16 16 16 17 17 17 16
16 16 16 17 18 17 17 18 19 19 19 20 21 20 20 20 20 18 15 16 19 20 20 19 18 18 19 19 17 15 15 12 9 7 6 4 3 3 4 4 4 4 6 6 7 9 10 10 11 12 12 13 14 14 15 15 15 16 16 17 16 17 17
15 14 14 15 16 18 19 19 19 18 19 19 19 19 19 19 17 14 14 17 17 17 17 15 14 15 16 17 16 16 15 13 10 8 7 6 5 4 2 2 1 2 3 4 5 7 8 9 10 11 12 13 14 14 15 16 16 16 16 16 16 16 17
12 13 14 15 16 16 17 17 17 17 18 18 18 18 18 17 15 13 15 16 14 13 13 13 12 13 13 13 14 15 15 14 13 11 9 7 6 4 3 2 1 3 3 4 6 7 8 9 10 10 11 13 13 14 15 16 16 16 15 15 16 17 17
14 15 16 16 15 15 15 15 15 16 16 16 16 16 15 14 13 13 13 12 11 11 12 12 13 13 13 12 13 13 13 14 14 13 11 10 7 5 3 2 2 3 3 5 6 7 8 9 10 11 12 13 13 14 14 15 15 15 16 16 17 17 18
19 18 17 16 15 14 14 14 15 15 15 15 15 15 14 13 13 12 12 11 10 11 12 12 12 12 12 13 13 13 12 12 13 13 13 13 11 8 5 4 3 3 3 5 6 7 8 9 10 11 12 13 14 15 15 16 16 16 17 18 18 17 17
22 21 18 16 14 13 13 14 15 14 14 14 15 14 13 12 11 11 12 11 11 11 11 12 12 12 11 12 12 13 12 12 12 12 12 12 12 11 9 8 7 6 5 5 6 7 9 9 10 11 11 12 13 14 15 15 16 16 17 18 17 17 17
Wind_Direction
254 257 260 260 261 261 261 262 262 262 260 258 257 257 256 255 253 251 251 252 252 252 253 253 253 255 256 256 256 255 255 254 253 252 249 247 245 242 241 236 230 234 250 245 241 246 251 254 257 256 256 256 255 251 247 245 242 240 238 238 236 235 236
248 248 249 253 258 261 262 263 263 262 260 257 256 256 256 255 253 252 252 251 251 252 253 254 254 256 257 256 255 255 255 254 253 252 249 246 244 242 242 240 234 234 245 249 244 243 246 248 251 254 254 253 252 251 249 246 243 240 238 236 236 235 235
50 27 266 252 255 258 261 263 263 264 263 261 260 259 259 258 257 255 255 253 254 256 256 255 255 256 258 257 256 255 254 254 253 251 250 248 246 245 244 243 239 237 241 248 248 245 243 243 245 249 251 251 251 249 247 246 244 241 239 236 235 235 233
50 51 49 46 25 317 283 272 268 266 265 265 266 265 265 264 262 261 260 259 260 261 260 258 257 259 260 258 257 256 255 253 252 251 250 249 247 246 246 245 243 241 241 245 249 245 243 244 243 244 245 245 244 242 241 241 240 239 237 235 233 231 229
38 39 40 40 36 29 18 352 316 290 277 271 269 268 268 268 268 267 266 265 265 264 264 262 261 261 262 260 257 256 255 253 252 251 249 248 247 247 247 246 245 244 243 243 245 245 244 242 238 237 238 237 235 233 231 231 232 232 231 229 227 226 224
28 29 29 30 28 25 21 14 4 348 326 304 286 277 272 270 270 270 270 269 269 268 267 266 265 265 263 260 258 257 257 256 254 253 250 248 248 247 247 245 244 244 243 242 244 245 242 236 232 230 231 230 228 226 223 220 219 222 223 223 223 223 223
17 18 19 18 17 18 15 11 5 357 349 340 326 311 295 284 278 274 273 272 271 271 270 269 268 267 265 262 261 260 259 258 256 254 253 251 250 249 246 244 242 242 240 240 242 243 240 236 233 229 227 226 221 220 221 217 213 214 218 220 223 225 226
8 5 4 3 3 4 3 2 360 355 351 345 338 330 318 308 297 289 283 279 276 274 272 272 270 269 267 266 265 264 262 260 258 255 254 253 252 249 245 243 241 239 237 237 238 239 239 236 231 225 223 220 211 209 215 217 217 220 222 223 225 226 227
0 357 353 350 349 347 346 347 348 348 351 349 343 335 325 317 310 303 297 291 287 282 278 276 274 273 272 270 270 269 267 265 262 258 256 255 252 249 245 242 240 237 234 232 233 237 235 230 227 222 215 210 208 211 218 220 219 223 227 227 227 228 228
356 353 351 347 343 339 337 336 334 333 335 339 338 333 327 321 315 310 305 300 295 290 286 283 281 279 278 276 274 272 270 268 266 262 260 258 255 251 246 241 237 234 232 229 228 232 227 221 225 222 215 215 219 221 222 221 218 222 225 223 224 230 232
354 352 352 348 342 338 334 331 329 326 320 321 327 327 323 319 315 311 308 306 304 300 294 290 286 283 281 278 276 274 272 271 268 266 264 261 258 255 251 245 238 234 232 227 227 230 226 221 227 227 222 222 225 223 221 221 221 220 217 211 212 224 230
353 351 350 346 341 340 337 333 331 327 320 317 321 323 319 314 309 306 304 303 303 304 302 297 293 288 284 281 278 276 274 272 269 267 266 264 260 257 255 252 246 241 236 230 228 229 227 226 229 230 226 225 225 223 223 224 222 219 215 211 212 216 221
348 347 346 345 343 341 339 336 334 333 329 322 319 317 314 309 304 299 298 298 298 300 300 299 296 293 289 287 284 280 277 274 272 269 267 265 262 259 256 253 251 248 245 239 235 232 232 234 232 229 230 232 230 225 221 219 217 217 217 216 217 221 222
343 341 341 342 342 340 338 335 333 334 331 325 321 316 309 303 298 296 297 298 297 298 298 297 296 294 292 290 287 284 281 278 275 272 268 265 262 260 258 255 252 250 247 244 240 237 240 242 238 236 240 242 237 228 222 219 219 219 219 218 221 225 227
338 336 336 339 341 339 332 327 328 329 328 325 323 317 309 301 297 297 300 301 301 302 301 301 300 297 294 292 289 286 283 280 277 273 269 265 262 261 260 258 255 252 248 245 242 241 244 246 245 245 246 245 240 234 230 228 228 227 222 219 218 220 223
333 331 330 332 333 328 321 320 326 327 324 324 324 319 312 304 299 299 301 304 305 305 304 305 304 301 299 296 292 288 284 281 278 273 268 264 261 261 260 258 258 257 253 250 247 246 247 248 248 247 247 244 241 237 232 226 225 223 215 208 206 210 216
328 328 327 326 326 323 320 324 333 331 325 326 327 325 322 316 310 306 303 301 302 302 304 306 306 305 304 301 298 295 289 282 277 273 269 265 262 260 258 259 260 259 255 253 251 250 250 249 248 246 245 244 240 236 229 218 209 205 200 196 196 203 211
325 323 324 323 325 328 328 330 336 335 331 330 328 327 328 325 321 316 308 302 300 300 301 302 305 307 305 303 304 302 296 288 282 277 273 269 267 264 260 260 261 259 256 253 250 248 246 245 244 243 241 240 236 233 228 218 210 204 196 193 198 202 205
322 321 320 321 324 329 329 325 324 324 326 327 324 323 325 325 323 320 316 313 307 301 299 301 305 305 303 303 305 303 298 292 286 280 276 272 269 264 261 262 262 259 258 255 249 243 238 234 236 236 234 230 227 228 228 223 217 208 199 198 202 198 188
321 319 319 321 321 317 313 312 313 314 318 320 319 317 318 320 323 322 320 318 312 304 302 301 300 298 300 303 302 297 293 289 283 278 274 271 265 260 260 263 262 259 258 254 247 241 234 229 228 228 224 216 213 218 219 215 213 211 207 207 205 197 192
321 317 317 319 316 311 311 314 316 316 317 320 320 317 315 318 322 322 319 316 310 304 300 297 297 302 305 306 303 296 291 287 281 276 273 269 264 262 263 263 260 259 257 251 243 234 226 222 218 215 211 204 201 206 207 205 206 210 211 211 208 202 203
322 320 319 320 319 320 323 326 326 325 326 330 328 323 319 319 319 319 317 313 308 303 298 296 298 302 304 305 304 299 294 289 285 279 273 270 267 266 266 264 259 257 252 244 234 223 214 210 206 202 200 196 195 200 203 202 203 206 208 213 217 214 215
323 322 320 321 323 324 325 328 330 327 326 328 327 324 321 319 317 318 318 313 307 302 299 298 297 296 298 302 302 299 296 293 290 284 276 272 270 269 270 269 262 251 242 233 222 213 207 204 200 198 196 193 193 197 201 202 203 205 207 211 216 220 226
325 324 321 320 320 320 322 326 327 321 317 320 321 320 317 315 315 320 320 316 311 309 306 304 301 296 293 295 297 298 297 293 289 285 278 274 273 270 271 273 261 242 230 220 210 205 204 202 200 200 198 197 196 195 196 198 198 198 200 205 213 220 227
325 322 317 316 315 315 318 322 320 314 314 316 317 316 316 317 319 322 320 315 314 316 313 309 304 295 288 292 299 303 301 296 292 288 282 278 276 271 270 272 257 233 218 209 203 203 204 204 204 204 202 201 197 194 193 193 192 193 200 209 218 223 226
317 315 312 311 310 310 313 317 316 315 317 320 320 322 325 325 323 324 324 319 316 317 316 314 309 300 294 298 303 304 303 301 300 296 289 284 280 273 270 269 252 226 212 206 205 205 206 207 206 203 199 196 193 191 191 192 194 201 209 215 220 224 228
308 309 308 307 307 309 312 313 315 318 322 326 327 328 328 325 323 327 330 328 323 321 321 319 316 309 303 301 300 300 300 301 300 298 292 287 282 276 272 265 247 227 216 212 210 207 205 205 202 196 192 190 187 188 191 195 201 207 212 216 220 224 228
305 305 304 303 305 309 310 310 313 319 324 325 323 321 319 319 323 326 327 327 327 325 322 319 316 312 308 304 300 300 301 300 296 293 290 284 279 272 261 247 232 220 212 209 206 201 196 194 192 190 189 187 186 188 193 198 203 208 212 216 217 218 224
300 301 302 302 303 304 305 307 312 317 316 314 313 311 310 313 317 319 320 323 324 322 320 320 319 316 311 306 302 301 303 301 293 288 293 300 285 257 225 210 205 200 195 195 194 190 186 183 183 184 186 185 187 191 196 200 204 208 211 212 213 218 226
296 299 300 302 304 305 307 310 313 312 309 307 307 306 305 306 307 310 315 320 320 318 318 319 319 316 311 306 301 298 297 297 293 293 307 354 52 72 96 123 146 156 160 165 170 173 175 175 175 178 181 184 189 194 198 202 207 210 211 210 212 218 226
298 300 300 304 310 314 314 313 313 312 309 308 306 304 303 303 303 306 315 322 321 317 315 314 311 308 307 306 303 298 295 293 290 291 298 318 354 26 58 72 83 114 135 145 155 163 169 176 181 186 191 195 200 202 203 205 207 208 212 216 218 223 230
303 305 307 311 316 317 315 314 315 315 313 311 308 305 303 302 303 308 317 321 321 317 314 313 310 306 306 307 304 300 298 295 292 290 289 296 313 324 338 8 39 149 168 173 181 186 188 192 196 199 202 203 205 204 205 206 208 210 215 219 223 230 237
303 308 313 314 315 315 315 315 315 316 316 317 314 309 304 300 301 309 317 321 324 323 320 321 320 315 313 312 307 303 300 298 295 294 290 288 291 291 289 291 228 192 196 193 193 198 202 201 203 204 203 203 205 206 207 209 212 216 219 222 227 233 238
308 313 317 316 314 315 317 317 317 318 321 323 323 320 315 306 301 307 314 320 327 332 330 328 327 325 323 320 314 309 306 301 297 295 294 292 287 278 270 257 224 214 209 198 197 202 204 203 203 204 203 204 206 208 212 215 218 221 223 226 230 234 238
312 318 321 318 315 316 318 318 319 320 320 323 328 330 327 317 310 313 319 325 332 335 332 329 327 327 328 325 318 313 310 305 299 296 294 292 291 287 282 273 259 247 230 215 211 211 210 207 206 207 208 209 210 211 215 219 221 225 230 233 234 237 239
311 317 320 318 317 318 317 317 319 321 321 322 324 327 329 327 326 327 329 332 337 337 332 326 321 321 326 329 326 322 317 308 300 295 291 289 289 288 284 282 282 278 267 248 233 226 221 215 212 212 211 211 214 217 221 225 227 230 234 236 238 239 239